Погода в Лос-Анджелесе

США     34°02′54″N   118°15′10″W
темп.,
°C
ветер,
м/с
пор.,
м/с
влажн.,
%
обл.,
%
осадки,
мм/ч
давл.,
гПа
погр.,
м
19 апреля, пн
пн1923:00+24св01170 0.0 101523
02:00+22всв01230 0.0 101513
05:00+20вюв11240 0.0 101513
08:00+21юв11240 0.0 101694
11:00+26ю21142 0.0 1016500
14:00+28зюз65200 0.0 1014783
17:00+25зюз56250 0.0 1013404
20:00+22юз22370 0.0 1013245
20 апреля, вт
вт2023:00+20ююв33510 0.0 1013284
02:00+18ююв22570 0.0 1013229
05:00+17ююв22660 0.0 1012201
08:00+17ююв33650 0.0 1013345
11:00+21ююв44460 0.0 1013706
14:00+23ююв55370 0.0 1011817
17:00+21ююв5446100 0.0 1010817
20:00+18юв44648 0.0 1011743
21 апреля, ср
ср2123:00+16юв556967 0.0 1011855
02:00+15юв6667100 0.0 10111019
05:00+15юв6668100 0.1 10101128
08:00+15юв556098 0.1 10121040
11:00+17юв545060 0.1 10131327
14:00+18ю645291 0.0 10121480
17:00+17ююз435681 0.1 10111270
20:00+16ююз336291 0.0 1011909
22 апреля, чт
чт2223:00+15ююз3366100 0.0 1013798
02:00+15ю236671 0.0 1012768
05:00+14юз2268100 0.0 1012648
08:00+15ю216599 0.0 1014631
11:00+18ю325047 0.0 10141283
14:00+20юз634628 0.0 10131395
17:00+18зюз64548 0.2 1012970
20:00+16юз44650 0.0 1013538
23 апреля, пт
пт2323:00+15юз33692 0.0 1014472
02:00+14юз227412 0.0 1014449
05:00+14ю127556 0.0 1015469
08:00+14ююв2270100 0.0 1016719
11:00+16ююз226492 0.0 1016850
14:00+20ююз434986 0.0 10151077
17:00+19юз53543 0.0 1015923
20:00+15юз326715 0.0 1016627